Simultaneous Nadir Overpasses (SNOs) Predictions

Prediction of SNOs between FY3D and TERRA Satellite Orbit:

Table of predicted SNOs for the next 14.0 days since TLE Epoch: 11/7/2020
Index Date (FY3D) Time (FY3D) Lat,Lon (FY3D) SZA (FY3D ) Date (TERRA) Time (TERRA) Lat,Lon (TERRA) SZA (TERRA ) Distance(km) Time Diff (sec)
1 11/09/2020 17:39:20 -69.12, 94.59 93.82 11/09/2020 17:40:13 -69.15, 94.61 93.79 3.26 53
2 11/09/2020 18:30:03 69.00, -97.92 86.07 11/09/2020 18:29:41 68.99, -97.96 86.05 1.88 22
3 11/09/2020 19:20:30 -68.16, 70.50 94.74 11/09/2020 19:19:22 -68.21, 68.72 94.73 73.87 68
4 11/12/2020 09:55:41 -69.12,-149.49 93.09 11/12/2020 09:56:41 -69.14,-149.53 93.07 2.22 60
5 11/12/2020 10:46:24 69.00, 17.99 86.81 11/12/2020 10:46:08 69.02, 17.97 86.82 2.54 16
6 11/12/2020 11:36:57 -68.43,-173.92 93.75 11/12/2020 11:35:46 -68.48,-175.08 93.73 47.68 71
7 11/15/2020 02:12:04 -69.18, -33.65 92.34 11/15/2020 02:13:09 -69.17, -33.61 92.34 1.81 65
8 11/15/2020 03:02:47 69.06, 133.83 87.56 11/15/2020 03:02:36 69.06, 133.89 87.55 2.59 11
9 11/15/2020 03:53:23 -68.65, -58.29 92.84 11/15/2020 03:52:11 -68.68, -58.96 92.83 27.28 72
10 11/17/2020 18:28:26 -69.18, 82.27 91.68 11/17/2020 18:29:37 -69.20, 82.31 91.66 2.53 71
11 11/17/2020 19:19:09 69.07,-110.26 88.23 11/17/2020 19:19:04 69.08,-110.20 88.23 2.82 5
12 11/17/2020 20:09:49 -68.86, 57.34 91.97 11/17/2020 20:08:36 -68.87, 57.17 91.98 6.93 73
13 11/20/2020 10:44:52 -69.40,-162.13 90.85 11/20/2020 10:46:03 -69.33,-161.64 90.91 20.72 71
14 11/20/2020 11:35:30 69.08, 5.64 88.85 11/20/2020 11:35:31 69.10, 5.71 88.87 3.30 1
15 11/20/2020 12:26:11 -68.93, 173.18 91.30 11/20/2020 12:25:02 -68.95, 173.15 91.28 3.03 69
